Location: Fort Wayne
(41.1310°N, 85.1290°W)
Time: 23:42:29
(UTC-04:00)

OPAL - Pass Details

Date: 24 August 2017
Orbit: 743 x 796 km, 100.2° (Epoch: 25 September)

Event Time Altitude Azimuth Distance (km) Brightness Sun altitude
Rises 20:43:36 0° 199° (SSW) 3,235 10.8 -4.1°
Reaches altitude 10° 20:46:25 10° 214° (SW) 2,304 10.2 -4.6°
Maximum altitude 20:50:16 22° 264° (W) 1,636 10.2 -5.3°
Drops below altitude 10° 20:54:06 10° 314° (NW) 2,291 11.2 -6.0°
Sets 20:56:54 0° 330° (NNW) 3,213 11.6 -6.5°
